Wind_Speed
35 36 36 35 34 31 29 27 27 28 28 26 25 23 22 21 21 20 20 20 20 20 19 18 17 16 16 17 16 15 15 14 14 13 12 13 13 13 15 15 16 16 17 17 18 18 18 18 17 16 16 16 16 16 16 16 16 16 16 17 18 18 19 21 24 30 34 31 29 29 27 25 24 23 23 23 23 22 22 21 20 20 20 20 21
33 35 36 35 34 33 31 29 27 27 28 28 27 25 24 23 22 23 22 22 22 21 20 19 18 18 19 19 18 17 16 16 15 14 13 14 14 14 15 16 16 17 17 18 19 19 19 20 19 19 19 20 19 19 19 18 18 18 18 18 19 19 19 21 23 28 34 34 32 30 29 27 27 25 23 23 23 23 23 23 22 21 21 21 21
31 34 35 35 34 33 32 31 30 29 29 29 29 28 26 25 25 24 24 23 23 22 21 21 20 20 20 20 19 18 18 17 15 14 15 15 15 16 16 16 17 17 17 18 19 20 20 21 21 22 22 23 23 23 23 22 20 20 20 20 20 20 20 20 22 25 30 34 33 32 31 30 29 27 24 23 23 23 24 25 24 23 23 23 23
30 32 32 32 34 35 33 32 31 32 32 31 31 30 29 28 27 26 26 25 24 23 22 21 21 22 21 21 20 20 18 17 16 15 15 16 16 17 18 18 18 18 18 19 20 21 22 22 23 24 24 25 25 26 26 26 24 23 22 21 21 22 22 21 22 23 27 32 33 33 32 31 31 30 26 23 21 21 22 24 26 26 25 24 24
26 29 29 29 33 35 34 33 32 32 32 32 32 32 31 31 30 28 27 26 25 24 23 22 22 22 22 21 21 20 18 17 16 15 15 16 17 18 18 19 19 20 21 21 22 23 24 25 26 26 27 27 27 27 27 27 27 27 26 25 24 24 24 24 24 24 26 30 33 33 33 32 32 32 29 26 24 22 21 21 22 25 26 26 25
21 25 27 29 32 34 34 34 33 32 31 32 33 34 34 33 33 31 29 27 26 25 24 23 22 22 22 22 20 19 18 16 15 14 15 16 18 19 20 21 21 22 23 24 25 26 27 28 29 30 30 30 29 28 28 27 27 28 29 29 29 28 27 27 26 27 28 30 32 34 34 33 33 33 31 29 28 27 24 22 20 21 25 27 27
17 21 24 27 30 33 34 35 35 34 33 32 34 36 37 35 34 33 31 29 27 26 24 22 22 22 22 21 20 18 16 14 13 14 16 18 19 21 22 23 24 25 25 26 27 29 30 32 33 33 33 32 31 30 29 29 28 28 29 30 31 32 33 32 30 30 30 31 32 34 35 34 33 33 32 30 30 30 29 27 24 21 21 24 27
14 16 19 23 27 31 33 36 37 37 36 35 34 37 40 39 37 35 33 30 28 25 23 22 22 23 22 20 19 17 15 13 14 15 17 19 21 22 24 25 27 28 29 30 31 32 33 35 35 35 34 33 31 30 29 29 30 30 29 29 31 33 35 35 35 35 34 33 34 35 35 36 35 34 33 31 31 31 30 29 29 26 22 22 23
13 15 17 19 22 24 27 32 35 37 37 36 36 38 38 37 37 36 32 29 26 23 22 22 22 22 21 20 18 16 14 15 16 17 19 20 22 24 26 27 29 30 32 33 34 35 36 37 36 35 34 33 32 31 29 29 29 31 31 30 31 32 33 35 36 37 37 37 37 36 36 38 37 35 34 33 32 31 30 29 31 30 28 27 25
16 16 18 18 19 19 21 24 28 29 30 32 35 37 36 34 34 33 30 27 25 22 22 22 22 22 21 19 17 16 16 17 17 18 20 22 24 26 27 29 31 33 35 37 38 38 37 36 35 34 33 33 32 32 31 30 30 31 31 32 32 32 33 34 35 36 37 39 39 38 38 40 39 37 36 35 32 32 31 30 30 31 31 32 31
19 20 20 20 20 20 20 21 22 22 23 26 29 33 35 34 31 31 31 28 24 22 22 22 22 22 20 18 17 17 17 17 18 20 22 23 25 27 29 31 33 35 37 39 39 38 37 36 35 34 34 33 33 33 33 32 32 32 33 33 33 33 33 34 35 35 36 38 40 39 40 42 40 38 37 36 34 33 32 30 29 30 31 32 33
25 24 24 22 22 22 22 22 23 22 22 24 27 30 32 31 30 32 31 28 26 25 24 24 23 22 20 18 17 17 17 18 20 22 23 25 27 29 30 33 35 37 38 38 38 38 37 37 36 36 35 35 34 34 34 34 34 34 35 35 35 34 34 33 34 35 35 37 39 40 41 42 42 40 39 38 36 34 33 32 30 29 30 31 32
27 28 27 25 24 23 23 24 24 24 23 24 27 29 27 28 31 32 30 28 27 27 25 24 22 20 18 17 16 17 18 20 22 23 25 27 28 30 33 34 36 36 36 36 37 37 37 37 38 37 37 36 36 36 36 37 36 37 37 37 38 37 37 36 35 34 35 36 39 41 41 41 43 43 40 38 37 35 34 33 31 29 29 30 29
28 28 27 27 25 24 24 25 25 25 25 25 27 27 24 26 30 31 29 28 28 26 24 22 20 18 17 16 16 18 20 22 23 25 27 28 30 32 34 34 35 35 35 35 35 36 36 36 37 37 37 37 37 37 37 38 38 39 39 40 40 39 39 39 37 36 36 36 38 40 40 39 41 42 40 39 38 36 34 32 30 28 29 30 30
30 29 27 26 25 24 24 25 26 27 25 25 26 25 23 26 31 31 28 27 26 24 21 19 18 18 17 17 18 19 21 22 24 25 27 29 31 32 32 33 34 35 35 34 34 34 34 34 36 36 37 36 36 36 36 37 38 40 41 42 42 42 41 41 40 39 38 38 38 39 38 37 38 39 39 39 39 38 36 34 32 32 33 34 34
31 30 29 26 24 24 24 25 27 27 25 25 26 24 23 28 32 30 28 27 24 21 19 18 18 18 18 18 19 20 21 22 24 25 27 28 29 29 30 32 34 34 34 34 33 33 33 33 34 35 36 36 35 34 34 35 37 39 41 42 42 43 43 42 41 41 40 39 39 39 38 37 36 36 37 37 38 37 36 36 37 36 37 38 39
31 30 29 27 24 23 23 24 27 27 25 24 25 25 25 30 32 31 30 28 23 20 19 18 19 19 18 19 19 19 20 22 23 24 24 25 26 28 30 32 34 34 34 34 33 33 33 32 33 34 35 34 33 33 32 33 35 37 39 41 42 43 44 43 42 42 41 40 40 39 39 38 36 36 35 35 36 35 34 36 37 34 35 37 40
31 29 27 25 23 22 22 23 25 25 22 22 24 26 30 34 33 30 28 25 21 20 20 19 18 17 17 17 18 18 19 19 19 20 21 23 26 29 31 33 34 35 35 34 34 34 33 32 32 32 33 32 31 31 30 31 34 36 37 39 42 44 44 42 42 43 42 41 40 39 39 39 37 37 35 35 35 33 34 37 36 34 37 40 41
30 27 25 24 23 22 20 21 22 22 21 23 26 30 34 35 32 28 24 22 21 20 18 16 15 15 15 16 16 15 15 15 17 19 21 24 27 30 32 34 35 35 36 36 35 35 34 33 31 30 31 30 30 29 29 30 32 35 35 36 40 44 42 40 41 41 41 42 41 40 39 39 38 38 37 36 34 34 36 38 36 36 40 43 41
29 27 25 24 23 21 18 17 18 19 21 23 28 33 32 26 23 22 21 19 18 16 14 13 12 12 12 12 11 12 13 15 17 19 22 25 28 31 33 34 35 36 36 37 37 37 36 35 33 31 30 31 30 31 31 31 32 35 34 34 36 38 37 36 38 38 39 41 42 41 41 40 39 39 38 37 36 35 36 38 38 39 41 41 40
31 29 27 24 22 18 15 15 17 19 22 27 33 34 29 21 18 17 16 14 12 11 10 9 8 7 7 8 9 12 14 16 18 20 23 27 29 31 33 34 35 37 38 38 38 39 38 37 36 34 32 33 33 33 34 33 34 35 35 35 36 37 37 37 37 36 38 40 39 40 41 41 40 40 39 39 38 36 36 37 38 39 39 39 39
34 31 26 21 17 14 14 17 20 24 28 32 31 29 24 19 16 14 13 11 9 7 5 2 2 4 6 8 10 12 14 16 19 21 24 27 30 32 33 35 35 37 39 40 40 40 40 39 38 36 35 35 35 34 35 34 34 36 37 37 39 40 40 40 38 37 38 38 37 38 39 39 40 41 41 41 40 37 36 35 36 37 37 37 37
31 25 19 15 14 15 17 22 26 30 32 29 25 21 19 15 13 11 9 7 6 5 3 4 5 6 8 9 10 12 14 16 19 22 25 28 30 32 34 36 36 38 39 41 41 41 41 40 39 37 36 36 35 35 34 33 33 35 36 36 37 38 38 39 39 37 37 36 37 40 40 40 41 43 43 42 40 38 35 33 33 34 34 35 34
19 14 13 15 18 22 27 31 32 31 28 24 21 19 17 15 13 10 8 7 7 7 7 7 8 9 10 10 11 13 14 17 19 22 26 29 31 33 35 37 38 38 39 41 42 42 42 41 39 38 37 36 35 33 32 31 30 31 32 32 32 33 34 36 37 37 37 37 39 42 42 42 43 44 42 41 39 37 35 32 32 32 32 33 33
12 14 17 23 29 33 33 32 29 26 23 19 18 18 17 14 12 10 9 8 8 8 8 9 10 11 12 12 13 14 16 18 21 24 27 30 32 35 36 38 38 39 40 41 41 41 41 40 39 38 36 34 33 32 31 30 29 29 30 29 30 32 34 36 37 38 39 40 41 42 43 43 42 42 40 37 35 34 33 32 31 31 31 32 33
16 22 27 32 35 34 32 30 27 25 23 20 18 17 15 14 13 12 11 10 10 10 10 11 12 13 13 14 16 17 18 20 22 25 28 31 34 36 38 39 39 39 40 40 40 40 40 39 38 37 36 34 33 32 32 31 30 30 30 30 30 32 33 36 38 39 41 42 42 43 44 42 41 39 37 34 32 31 32 33 32 32 32 31 32
28 33 36 37 37 35 34 33 30 27 24 21 18 16 15 15 16 15 13 12 12 11 11 12 13 15 15 16 17 18 20 21 24 27 30 33 36 38 39 39 40 39 39 39 39 39 39 38 37 35 34 33 32 31 30 30 30 30 29 29 29 30 31 33 35 38 40 41 41 42 42 41 40 38 36 35 33 32 32 33 34 34 32 30 31
36 38 39 38 37 36 34 31 27 24 22 18 16 15 16 17 17 16 14 13 13 13 13 14 15 17 17 17 19 20 21 23 25 28 31 34 36 37 38 39 38 38 37 37 37 37 37 36 34 32 31 30 29 29 28 27 27 27 28 28 28 28 28 29 31 34 36 38 39 40 40 40 40 39 38 37 36 35 34 33 34 34 32 30 31
40 37 35 31 28 27 27 25 23 22 20 18 17 18 18 17 15 14 14 13 13 14 15 15 17 18 19 18 19 21 22 24 27 29 31 33 34 35 36 36 35 34 34 33 32 32 32 30 29 28 27 27 27 27 27 26 26 26 26 26 26 27 27 27 29 32 33 35 37 38 38 39 39 39 38 38 38 36 35 34 34 33 32 31 32
33 31 28 26 24 24 24 23 22 20 19 19 19 19 18 15 13 13 13 12 12 14 16 17 18 20 20 20 18 19 21 25 28 30 31 32 32 32 32 32 31 30 28 27 26 26 26 26 26 26 26 27 27 27 27 27 27 27 26 25 25 25 26 27 28 29 30 32 33 35 36 37 38 38 37 37 36 34 32 33 33 32 32 32 32
27 27 26 26 25 24 22 21 20 18 17 18 18 17 15 14 13 12 11 11 12 14 16 17 19 20 21 20 19 19 22 26 29 30 31 31 31 30 30 29 27 25 23 23 23 24 24 26 27 27 27 28 28 28 28 28 28 27 27 26 25 24 24 25 26 26 28 29 31 32 33 35 37 37 37 36 33 30 30 31 32 32 32 32 32
26 26 25 23 21 20 18 17 16 15 16 17 15 13 13 13 12 11 10 11 12 14 15 16 18 20 21 21 20 21 24 28 30 30 30 30 29 29 28 27 24 22 21 21 22 24 26 27 28 28 28 29 29 29 29 28 28 27 27 27 26 24 23 23 23 23 25 26 28 29 31 32 33 34 35 34 31 29 30 31 31 32 32 31 30
22 22 20 19 17 15 14 13 13 14 16 15 13 12 11 11 11 10 10 11 11 12 13 15 16 18 21 22 22 23 25 28 29 29 28 29 29 28 28 26 23 22 22 23 25 27 28 29 29 29 29 30 30 30 29 28 28 27 27 27 26 24 22 21 20 20 21 22 23 26 27 28 29 30 31 31 30 29 31 32 32 32 31 29 29
20 20 18 17 15 13 13 13 14 15 15 13 12 11 10 9 10 9 9 9 8 8 10 12 14 18 21 23 23 23 24 26 28 28 28 29 29 29 28 27 25 23 22 23 26 28 30 30 30 30 30 30 30 30 30 29 28 28 27 26 25 23 21 19 18 19 18 18 19 22 24 25 26 28 29 29 28 30 32 33 33 33 30 27 27
21 19 18 16 14 13 13 13 14 15 14 11 8 7 7 7 7 7 7 7 6 6 8 11 14 18 21 23 23 23 23 25 27 28 28 29 29 29 30 30 29 28 26 26 28 29 30 31 31 31 31 31 31 31 31 30 29 28 27 26 24 22 19 17 17 17 16 16 17 18 20 21 23 25 26 26 27 29 32 34 34 33 29 25 25
19 18 17 16 14 12 12 12 11 11 10 8 6 5 5 5 4 4 5 5 6 7 10 13 15 17 20 21 22 22 23 25 27 28 29 29 29 29 31 32 33 32 31 30 30 31 31 31 31 31 32 32 31 31 31 31 30 28 27 26 23 21 18 16 16 16 16 15 15 16 17 18 20 21 23 24 26 27 29 31 31 30 27 24 23
19 17 16 15 13 12 11 10 9 9 8 7 6 4 3 3 2 2 3 4 7 9 12 15 16 17 19 20 21 22 23 25 27 28 29 29 29 29 31 32 33 33 32 31 32 32 33 32 32 32 32 32 32 32 31 31 30 28 26 25 22 20 18 15 14 14 15 15 14 14 15 16 17 18 20 22 24 24 25 26 27 26 24 22 21
18 17 15 14 11 10 9 9 9 9 8 9 7 5 3 2 1 3 5 6 8 11 13 14 16 18 19 20 21 22 23 25 28 30 31 32 32 32 31 30 32 33 33 31 31 32 33 33 32 32 32 32 32 32 32 31 30 28 27 25 21 19 17 15 12 10 12 13 13 13 13 14 14 15 17 18 19 20 21 23 23 23 22 21 20
17 14 12 10 9 8 9 10 9 8 9 10 8 6 3 2 4 6 7 8 9 11 12 14 16 18 19 19 21 22 24 26 29 30 32 34 35 35 33 31 30 32 32 32 31 32 33 34 33 32 32 32 32 32 32 31 30 29 27 25 22 20 18 14 10 8 8 9 10 10 11 11 12 13 13 14 14 15 17 18 18 19 19 20 22
15 12 10 9 9 10 10 9 8 10 11 10 7 4 2 3 5 6 7 7 9 11 13 15 16 18 18 19 20 22 23 25 26 28 30 33 35 36 36 33 31 31 31 32 32 32 33 34 33 33 33 33 33 33 32 32 31 30 28 25 23 21 19 15 11 10 8 5 7 10 11 10 11 12 13 13 13 13 13 14 16 17 19 22 26
13 10 10 10 10 11 10 9 10 11 11 8 4 1 1 3 5 6 6 7 9 12 14 16 17 18 17 17 18 20 21 22 24 25 28 31 33 36 37 36 33 31 30 31 31 31 32 33 34 33 33 33 33 33 33 32 32 31 28 25 23 20 18 15 13 12 10 4 3 8 10 10 11 13 13 13 13 13 13 15 17 20 22 25 28
11 11 11 11 11 11 9 8 9 9 8 5 2 0 2 4 5 6 7 8 10 12 14 16 17 17 16 15 16 18 19 20 22 24 26 28 31 33 36 37 36 33 31 30 31 30 31 32 33 33 33 32 33 33 33 33 32 31 29 26 23 21 19 16 14 13 11 7 2 5 7 8 9 11 12 13 14 14 16 17 20 23 25 27 30
10 11 11 10 10 9 7 6 7 7 5 2 1 2 4 5 6 7 7 8 10 12 14 15 15 15 14 13 14 16 18 19 21 23 26 27 29 31 33 35 37 35 32 30 29 29 29 30 32 33 33 32 32 32 32 32 32 32 30 27 23 20 18 17 15 13 10 7 4 3 5 7 9 10 12 13 15 16 18 20 23 25 28 29 31
9 9 9 9 8 7 6 5 4 3 2 1 2 4 5 6 7 7 8 9 11 12 13 13 13 13 12 12 12 14 16 17 19 22 24 26 28 29 31 33 35 36 35 32 31 30 29 29 30 32 32 32 31 31 32 32 31 31 30 28 24 21 18 16 15 13 10 6 3 2 4 7 9 10 12 14 16 18 20 23 25 27 29 31 32
6 6 7 7 6 5 5 3 2 1 1 2 4 5 6 7 8 8 9 10 11 12 13 13 13 13 12 11 12 13 15 16 17 20 23 25 27 28 29 30 33 35 36 34 32 31 30 29 30 31 32 33 32 32 32 32 32 31 30 28 25 22 19 17 15 13 9 5 2 1 4 7 9 11 13 15 17 19 22 24 26 28 30 32 34
6 5 5 5 4 4 2 1 1 2 2 3 5 6 7 8 8 9 10 11 11 12 12 13 13 13 13 12 11 12 13 15 16 18 21 23 25 26 27 28 30 33 35 35 34 33 31 30 30 30 31 33 33 32 32 32 32 32 31 28 25 22 19 16 14 12 8 3 1 2 4 7 10 12 15 17 19 21 23 26 27 29 32 35 38
5 5 4 4 3 2 0 2 3 3 4 5 6 7 7 8 8 8 9 10 10 11 12 13 13 13 13 12 11 12 12 13 15 17 19 21 24 25 26 27 28 31 33 34 34 34 33 32 30 29 30 31 32 32 31 31 32 32 32 29 26 22 19 16 13 10 7 3 1 4 6 9 12 15 17 19 22 25 27 29 31 33 36 39 40
4 4 3 3 2 2 2 2 3 3 4 4 5 5 6 6 7 7 8 9 9 10 12 13 13 13 12 11 11 12 12 13 14 15 17 20 22 24 25 25 26 28 31 33 34 34 34 33 31 29 28 29 30 31 30 30 30 31 31 29 25 21 18 15 11 9 6 3 3 6 8 11 15 19 20 22 25 28 31 34 36 37 39 40 41
5 5 4 3 3 2 2 1 1 1 2 2 3 4 5 5 6 7 8 8 9 10 11 13 13 13 11 10 10 12 12 13 13 15 16 18 20 22 23 23 24 25 28 31 33 33 33 33 32 30 28 27 28 29 29 28 28 29 30 28 25 21 17 14 11 8 6 5 6 9 12 15 19 22 24 26 28 30 33 35 37 39 40 41 41
5 5 4 3 2 2 1 1 0 1 1 2 3 4 5 5 6 6 7 8 9 9 10 12 13 12 10 10 11 12 13 14 14 15 16 17 19 21 22 22 22 23 25 28 31 32 32 32 32 31 29 27 26 27 27 26 25 25 27 26 24 20 16 14 11 8 7 7 10 13 16 19 22 25 26 28 30 32 34 36 38 39 41 42 41
5 4 3 2 1 1 1 0 1 1 1 2 3 3 4 4 5 6 6 7 8 9 10 11 11 11 10 10 11 13 14 14 14 15 15 16 18 20 21 21 21 21 22 25 28 31 31 31 31 31 29 27 25 25 25 24 22 22 23 25 24 20 16 14 12 10 9 10 12 15 18 20 23 26 28 29 31 33 35 37 38 39 40 40 38
Wind_Direction
246 247 247 246 247 248 249 249 249 249 248 247 246 243 239 236 235 235 234 236 239 243 245 246 248 251 253 257 262 267 274 278 281 285 291 294 299 304 306 309 310 310 311 311 310 310 309 309 309 309 308 306 305 302 296 288 279 273 272 272 271 268 266 267 269 272 273 273 273 274 275 274 270 268 271 271 268 262 258 256 258 261 263 264 264
250 252 251 250 250 250 250 250 251 252 251 249 247 244 241 238 237 238 238 238 241 244 246 248 248 250 252 256 261 267 271 274 277 281 284 288 294 298 301 304 306 307 306 306 306 306 306 306 307 308 307 306 306 304 302 298 292 285 278 274 274 273 272 272 272 273 274 275 274 273 274 275 272 267 267 269 268 263 256 252 251 253 256 259 261
254 254 256 257 257 256 254 252 251 252 252 252 250 246 243 241 239 239 240 241 244 247 248 249 249 250 252 255 261 266 270 273 276 278 281 287 292 297 300 302 303 303 303 304 305 305 305 305 305 306 307 306 305 305 303 299 296 292 287 282 277 274 273 274 276 277 276 276 276 276 274 273 272 269 267 267 268 267 263 256 251 249 250 254 257
262 258 258 259 260 260 259 257 255 253 253 253 253 251 248 245 243 241 242 243 245 247 248 248 247 249 251 256 261 265 268 270 272 273 278 286 292 295 299 301 301 302 303 304 306 306 305 305 305 306 306 304 302 302 301 298 294 291 288 285 281 277 274 272 273 277 279 277 275 275 275 274 273 271 268 266 264 264 265 261 255 250 247 247 250
272 267 262 256 255 258 260 261 260 258 256 255 255 254 252 249 247 245 244 245 245 246 246 245 245 247 251 256 260 263 266 266 268 273 280 287 291 294 295 297 298 300 303 304 305 305 305 305 306 308 308 306 303 300 299 296 293 288 285 283 282 279 276 272 270 271 273 276 275 274 274 274 273 271 269 268 265 262 262 264 262 256 249 244 243
277 274 270 263 258 259 261 262 264 264 263 259 256 255 253 252 250 248 247 245 245 245 244 243 243 246 250 255 258 261 262 264 269 278 286 290 294 296 297 298 300 301 302 303 303 304 305 305 307 309 309 308 306 303 300 297 292 287 284 281 280 279 277 274 272 270 269 271 272 273 273 274 274 272 269 268 269 266 263 265 268 264 257 250 244
282 277 274 271 267 264 263 263 265 267 266 263 261 258 255 252 250 248 247 245 243 243 242 241 242 245 249 253 255 256 258 263 272 280 285 291 295 299 301 303 304 303 303 302 303 304 304 306 307 308 309 308 306 304 302 299 295 289 285 282 280 279 278 276 275 273 271 270 269 270 271 273 274 273 270 268 268 267 267 269 270 268 264 259 252
298 288 280 275 273 270 268 267 266 266 267 265 264 260 256 252 250 247 244 242 241 239 238 239 240 244 247 250 250 251 255 263 270 276 284 292 297 301 303 304 303 302 302 302 303 304 305 306 307 307 307 306 304 302 300 299 296 293 289 286 282 279 278 277 276 275 274 273 270 269 269 270 270 271 271 270 269 267 267 270 270 268 266 267 263
300 298 291 284 280 277 275 273 271 271 271 270 269 266 262 257 252 247 241 238 237 235 234 236 239 241 243 244 245 248 254 262 269 278 287 295 299 301 302 301 301 300 301 301 303 304 305 306 306 306 306 305 303 301 299 297 294 292 291 288 286 283 281 279 277 276 276 275 273 272 271 270 269 270 269 269 270 269 267 267 269 267 266 268 269
295 294 292 292 290 286 280 276 276 277 276 275 274 273 270 262 253 248 243 236 232 230 231 233 236 238 238 239 242 247 255 264 274 283 290 294 297 298 298 298 298 298 299 301 302 304 305 305 305 305 303 302 301 299 298 295 292 290 289 288 286 284 282 281 279 278 277 276 275 275 273 271 270 270 270 268 269 270 269 267 267 266 267 269 269
296 293 291 291 290 287 282 277 276 275 273 274 274 273 271 264 252 243 238 230 224 224 229 232 233 234 234 235 241 250 259 269 277 282 287 291 293 294 295 296 297 298 300 302 303 305 305 305 305 304 303 301 300 298 296 294 292 290 288 287 285 283 281 280 279 278 277 276 276 276 274 273 272 271 271 270 269 269 270 269 269 267 266 269 271
296 295 294 293 288 283 281 279 277 273 270 272 273 272 269 263 249 236 228 220 217 220 225 228 230 230 231 236 244 254 263 270 276 280 285 288 290 292 295 297 299 300 302 303 305 306 307 307 306 305 304 302 300 298 297 295 293 291 289 287 285 284 282 279 278 277 275 275 275 275 274 275 275 272 271 272 271 270 270 270 270 269 266 267 270
297 296 294 294 290 282 275 273 274 274 273 274 275 271 266 255 239 225 216 211 213 216 219 223 226 229 233 240 248 257 264 270 274 279 283 287 290 293 296 298 300 302 304 305 306 307 307 306 305 304 303 302 300 299 298 296 295 293 291 289 286 285 283 281 279 277 275 273 273 273 273 274 275 275 273 273 273 272 271 270 270 269 266 265 265
297 296 294 292 289 283 275 270 269 270 271 273 272 268 261 246 227 214 208 207 209 210 211 217 225 232 238 244 251 258 263 269 274 279 283 288 291 294 296 299 301 303 304 305 306 306 305 304 302 301 300 299 298 297 296 295 294 292 290 289 287 285 284 282 280 278 277 274 272 272 273 273 273 275 274 273 272 270 270 270 269 266 264 262 261
297 296 294 290 287 282 275 268 267 267 268 270 267 261 250 231 214 206 204 205 205 205 208 215 226 234 240 246 253 258 263 269 275 281 287 291 294 296 298 300 301 303 304 305 305 304 303 301 300 299 298 297 296 295 294 292 291 290 288 287 286 285 284 282 281 280 278 276 274 274 274 272 271 271 271 270 268 267 266 265 262 261 261 261 260
297 296 294 291 287 282 274 266 264 266 267 266 261 252 235 216 204 199 198 199 202 206 208 215 226 232 239 246 252 258 266 274 281 288 293 296 298 300 302 303 304 305 306 306 305 303 302 301 300 299 298 296 295 294 292 291 289 287 286 285 284 283 282 281 281 280 278 276 275 275 274 273 271 269 267 266 264 264 263 261 259 258 260 262 261
296 296 293 291 286 282 274 264 260 263 264 261 255 244 222 204 197 197 198 199 201 205 207 214 222 230 238 246 254 264 274 283 290 295 299 302 304 306 308 308 309 309 309 309 307 305 304 303 302 301 299 299 298 296 295 292 290 288 287 286 284 282 281 281 280 279 278 277 275 274 274 273 271 269 267 264 262 260 258 257 256 255 256 258 259
299 297 293 289 284 281 273 261 258 261 258 253 249 234 211 198 196 197 199 197 195 199 206 213 221 231 242 252 264 275 284 292 298 302 306 309 312 314 315 315 314 313 313 311 309 308 307 306 306 305 304 304 303 301 299 295 291 289 289 287 285 283 282 282 281 279 279 278 275 273 272 271 270 269 267 264 262 257 253 253 253 252 252 253 255
303 298 291 285 281 277 269 258 255 252 245 241 232 214 198 192 191 191 191 191 192 197 206 215 226 239 253 265 277 286 295 304 308 312 316 319 320 321 320 319 318 317 315 314 313 312 312 312 312 311 308 307 304 301 297 294 290 289 288 286 284 283 283 283 282 281 280 279 277 274 271 269 268 268 266 264 261 255 250 250 250 250 251 253 254
302 295 286 282 278 274 264 250 245 243 240 233 216 200 189 179 174 174 176 182 189 199 211 224 239 253 266 279 293 302 309 315 318 322 324 325 324 324 323 322 321 319 317 317 316 316 317 317 316 315 312 308 304 301 296 292 289 287 285 281 278 280 282 282 282 281 281 279 277 275 272 269 267 266 265 263 261 256 251 248 247 248 250 252 253
301 295 285 277 274 268 251 233 231 231 223 211 199 190 183 173 170 174 180 188 200 212 222 234 250 270 292 307 314 317 319 322 325 327 328 327 326 325 324 324 322 321 319 319 318 319 320 319 318 316 314 309 305 301 297 293 290 285 281 277 276 279 281 281 280 280 279 277 275 273 271 268 266 264 263 263 262 259 254 248 245 245 246 247 248
298 292 282 273 264 250 231 220 214 205 193 185 178 172 170 174 184 192 194 195 196 199 207 237 302 325 331 327 322 323 324 326 328 330 329 328 327 327 326 324 324 322 320 319 319 319 319 318 317 316 313 309 305 301 297 294 289 284 280 278 278 280 280 279 278 278 276 274 272 270 269 267 264 263 262 262 263 263 259 252 246 242 242 243 244
292 283 271 256 237 221 208 196 187 178 170 166 163 159 158 163 169 169 165 157 138 118 77 27 9 354 342 333 328 328 328 329 330 331 330 329 328 328 326 325 324 323 320 318 318 318 318 317 316 314 311 308 305 302 300 296 292 287 284 283 281 280 278 275 274 273 271 269 267 266 265 264 264 263 262 262 263 264 263 258 250 244 240 240 241
283 264 244 226 204 187 177 170 165 160 155 155 157 155 150 149 145 134 120 104 85 66 45 30 17 3 353 346 341 337 333 332 333 334 332 330 329 327 326 325 324 323 320 319 318 318 317 315 313 311 310 309 308 306 303 300 296 293 291 288 286 284 280 275 272 269 267 265 264 265 265 264 264 265 265 263 263 263 263 260 254 247 241 239 236
253 226 209 191 175 164 158 154 151 147 144 146 149 147 143 143 139 123 104 89 76 64 52 40 27 15 5 355 350 345 341 338 338 336 333 329 328 327 326 325 325 323 321 319 318 316 314 313 312 312 313 313 312 311 308 305 301 297 294 290 285 281 277 274 271 269 266 263 262 263 264 264 265 267 269 267 263 260 259 259 255 248 243 242 240
204 187 175 164 157 151 143 136 132 129 127 125 126 125 124 122 120 116 110 98 85 74 61 45 30 18 8 358 351 347 343 340 337 334 331 328 327 327 327 326 325 323 321 319 317 316 314 314 315 316 317 316 314 311 308 305 302 298 294 290 284 279 274 271 269 267 265 265 264 264 265 267 267 268 269 268 261 254 253 255 253 248 244 244 246
163 154 148 143 138 133 128 124 121 119 117 116 115 113 113 114 114 114 110 99 87 75 58 42 29 17 8 0 352 346 343 340 337 334 331 329 328 327 327 327 325 323 321 319 318 317 316 317 318 318 316 313 310 306 302 300 298 295 293 289 284 280 277 274 272 270 268 268 267 267 268 269 268 267 266 264 259 253 251 252 251 248 245 244 247
138 134 132 129 126 123 122 122 121 119 118 116 115 117 121 121 116 112 105 93 79 65 51 38 26 16 9 1 353 349 346 343 339 336 333 330 328 328 328 328 326 323 321 320 318 317 317 317 317 315 313 311 308 305 304 302 300 297 294 291 288 284 281 278 275 272 270 269 268 268 267 266 265 264 264 262 259 255 251 250 249 248 246 244 245
131 130 128 125 124 123 124 127 127 124 123 123 124 126 127 123 116 108 96 83 69 56 45 35 23 15 10 3 355 350 347 344 341 339 335 332 331 331 331 329 326 322 320 319 317 316 316 317 317 318 318 318 316 313 312 310 306 303 299 297 294 290 285 280 276 272 270 270 269 267 266 264 263 262 261 259 258 256 251 247 246 246 244 242 244
130 129 129 129 128 126 125 125 124 124 127 133 134 131 126 120 111 101 89 78 64 47 36 28 19 12 8 3 357 352 348 346 344 342 339 338 338 337 335 331 325 321 320 320 318 319 321 324 327 329 329 327 324 322 320 318 314 310 307 304 299 295 290 284 279 275 273 272 269 267 265 263 261 260 257 255 255 253 248 243 242 243 242 241 242
128 128 130 130 130 128 125 124 124 126 132 136 133 127 122 117 109 97 82 67 51 36 26 19 12 7 3 1 359 355 352 350 348 346 344 344 343 343 341 335 327 324 327 328 328 331 336 337 338 338 336 333 330 328 325 322 319 316 313 309 305 301 295 289 284 280 276 271 267 265 263 261 259 257 255 253 251 247 241 239 239 240 240 241 242
133 135 134 132 133 133 130 128 128 132 139 140 132 123 119 114 103 85 65 48 35 24 14 9 6 3 360 359 358 357 356 354 352 350 349 349 348 348 346 342 335 332 335 339 341 344 347 345 343 342 340 336 334 332 328 325 322 320 317 313 309 305 300 295 291 286 278 271 267 264 261 258 257 255 253 250 247 241 238 237 236 237 239 241 242
147 146 142 138 138 139 138 137 138 144 149 146 135 122 112 99 83 66 50 35 23 12 3 0 0 358 356 358 359 358 358 357 355 354 353 353 352 351 350 350 349 346 347 350 353 352 351 348 345 344 342 339 337 335 332 329 326 323 320 316 313 310 305 300 294 285 275 270 266 263 260 258 256 253 250 247 241 236 234 235 235 237 239 240 240
162 158 153 148 149 153 155 154 153 155 157 151 137 121 102 82 67 55 43 28 12 357 348 347 350 351 352 356 359 359 359 360 359 357 357 356 355 354 353 355 358 359 359 359 358 356 353 351 348 347 345 342 340 338 336 333 330 327 323 320 317 314 309 302 293 282 273 268 264 261 258 255 253 249 247 243 235 230 230 232 234 236 237 236 235
163 164 163 162 163 165 166 166 164 164 167 163 144 117 93 79 64 48 36 21 360 333 326 334 342 346 349 355 359 359 360 2 1 360 360 359 358 358 359 360 2 5 6 5 2 359 356 353 351 349 347 345 343 342 339 337 335 332 328 325 322 318 313 303 292 282 273 265 262 259 254 251 248 246 244 240 232 227 228 230 232 235 236 231 228
168 172 174 175 176 175 175 174 169 167 172 172 152 120 98 91 69 42 28 9 343 327 327 334 340 342 346 353 358 358 360 3 4 4 4 2 1 1 3 4 4 5 6 6 3 0 359 356 353 351 349 347 345 345 344 342 340 336 332 329 327 324 318 308 297 288 276 264 258 255 251 247 244 242 240 237 233 229 230 231 231 231 230 226 223
182 183 182 181 180 178 176 173 163 161 172 178 168 143 122 114 76 17 351 331 325 326 330 334 335 336 341 350 356 358 0 3 4 5 6 5 3 3 5 6 5 4 4 4 2 360 358 357 355 353 352 349 347 347 348 347 345 341 338 335 333 330 325 317 306 294 280 266 255 248 245 243 240 237 235 233 231 229 228 228 227 226 224 221 220
189 186 182 178 175 173 172 168 160 159 168 175 173 166 162 175 303 320 316 314 316 320 323 325 327 331 338 348 354 357 359 1 2 5 8 8 7 5 4 5 6 5 3 3 3 0 358 357 357 356 355 352 350 350 351 351 350 347 343 341 340 337 335 330 321 304 284 268 252 240 238 238 234 232 229 225 223 222 220 219 220 222 221 220 219
183 179 176 172 169 167 167 167 166 166 168 170 172 177 196 267 309 312 309 309 312 315 317 318 321 328 336 345 351 355 359 1 4 7 10 10 10 8 6 5 6 6 4 2 3 2 360 359 359 359 358 356 354 353 354 355 355 352 349 346 344 344 344 344 343 333 306 277 247 224 220 223 219 214 211 207 205 206 208 211 216 219 216 213 211
179 179 179 174 168 166 166 168 172 174 172 172 174 184 238 304 315 311 307 309 313 316 318 318 319 326 334 341 349 356 360 2 5 7 8 9 10 10 9 8 7 7 5 3 3 2 1 0 1 1 1 360 357 356 358 0 360 357 354 351 348 346 348 350 356 1 352 305 238 208 200 201 199 195 195 194 192 196 203 210 214 213 207 203 201
184 186 183 173 168 170 173 174 176 176 176 175 174 174 320 322 321 317 314 314 317 320 320 318 317 322 330 338 348 356 360 2 3 5 7 8 8 9 10 10 8 7 6 5 3 1 0 2 3 3 3 3 1 -0 1 4 4 2 358 354 351 349 350 352 358 8 15 16 199 191 187 188 191 192 194 196 197 204 212 213 209 204 200 197 195
183 185 184 176 173 179 183 179 175 176 178 176 175 261 314 315 317 319 317 318 319 319 316 313 313 318 327 337 348 355 358 0 3 5 6 7 7 7 9 10 10 8 7 6 4 1 0 2 5 6 6 6 5 4 4 6 8 7 2 357 354 352 353 355 1 9 16 24 73 158 166 176 187 195 202 208 210 213 214 208 199 196 194 191 190
182 183 186 186 184 185 186 178 174 180 188 197 237 293 305 309 313 316 317 319 320 318 315 314 316 323 330 337 346 353 356 0 4 6 6 6 6 6 7 10 11 10 8 8 7 5 4 5 7 8 8 8 8 7 7 7 9 10 6 2 358 355 356 359 4 8 11 14 29 105 142 164 179 189 200 208 209 205 201 195 190 188 187 183 182
185 190 194 194 188 184 186 183 177 185 208 261 290 301 307 308 308 312 316 320 322 322 321 322 325 330 334 338 343 348 354 360 5 7 5 4 5 5 6 9 11 11 10 10 10 9 8 8 9 10 10 11 12 12 11 11 13 12 9 5 2 2 5 8 9 8 6 8 20 91 146 166 179 186 191 195 195 191 187 185 183 180 178 176 174
179 186 191 189 179 177 185 186 177 193 290 307 301 299 299 298 303 310 316 318 321 323 324 327 331 335 338 340 343 346 351 357 3 5 4 3 3 3 4 8 12 12 12 12 12 11 11 11 10 10 11 11 13 14 14 14 16 16 13 8 5 6 8 12 11 7 3 3 20 107 161 167 175 181 182 182 182 181 179 179 178 175 172 171 168
156 159 167 170 163 162 172 180 239 277 291 296 290 286 286 292 301 308 312 315 319 322 325 330 334 336 338 342 346 347 348 352 358 2 2 0 0 1 2 5 10 12 12 13 13 13 13 13 12 11 11 11 13 14 14 14 16 18 16 12 9 7 7 8 9 8 3 1 48 157 168 167 170 174 174 173 174 174 172 171 169 166 164 162 159
138 142 146 143 135 136 233 290 284 279 281 282 280 281 286 295 303 309 312 316 320 324 328 333 336 336 338 342 347 348 347 347 353 360 1 360 360 0 360 1 6 10 12 13 14 15 15 14 13 12 11 11 12 14 15 14 15 17 18 15 11 9 8 7 9 12 11 11 123 156 161 162 163 165 166 166 165 164 161 159 158 157 157 155 153
130 137 139 134 134 164 225 259 266 269 272 274 277 285 293 300 307 314 316 320 324 328 331 334 337 337 337 339 345 349 348 345 349 358 2 1 0 0 359 358 2 8 12 13 14 15 15 15 13 12 12 12 13 14 15 15 14 17 19 17 13 11 11 12 16 25 32 46 124 149 155 158 158 158 159 159 158 156 154 152 151 152 152 150 149
104 110 116 120 127 140 150 160 184 225 254 267 281 296 304 309 314 320 323 326 330 334 334 335 337 338 338 341 346 348 346 346 350 358 2 3 3 2 0 358 359 5 11 14 14 15 15 15 14 13 13 14 15 16 16 16 15 17 19 19 16 14 17 22 30 41 55 87 127 143 148 150 150 151 152 153 152 152 151 150 149 150 149 147 146
94 97 102 106 111 122 134 148 172 226 282 292 296 304 311 315 320 326 332 337 341 344 342 340 340 342 344 348 351 349 347 349 354 358 0 4 5 5 3 359 358 3 10 13 15 15 15 14 14 14 13 15 17 18 19 19 17 17 20 23 22 20 23 32 44 58 78 105 125 135 139 141 143 144 145 147 147 147 147 147 147 147 147 145 145
89 90 93 93 82 79 70 26 1 326 309 312 313 316 321 328 334 341 348 353 355 356 354 351 352 355 356 355 353 351 349 352 356 358 0 3 5 6 5 2 359 1 7 12 14 16 16 15 14 14 13 15 18 20 21 22 21 20 23 28 29 29 31 40 53 68 87 105 119 128 133 135 138 139 140 142 144 144 144 144 145 144 144 144 145
Height
1499 1500 1501 1502 1504 1505 1506 1507 1508 1509 1510 1511 1512 1513 1513 1514 1514 1515 1515 1516 1516 1517 1517 1518 1518 1519 1519 1519 1520 1520 1520 1520 1520 1521 1521 1520 1520 1519 1519 1519 1518 1518 1517 1517 1516 1516 1515 1515 1515 1515 1514 1514 1513 1513 1513 1513 1513 1513 1513 1512 1512 1513 1512 1511 1509 1505 1503 1505 1506 1506 1507 1508 1509 1510 1509 1509 1510 1510 1510 1511 1512 1512 1513 1513 1514
1496 1496 1497 1498 1500 1501 1502 1504 1505 1506 1507 1508 1509 1510 1511 1512 1512 1513 1513 1514 1515 1515 1516 1517 1517 1518 1518 1518 1518 1518 1518 1519 1519 1519 1519 1518 1518 1518 1517 1517 1516 1516 1515 1515 1514 1514 1513 1512 1512 1512 1511 1511 1511 1510 1510 1510 1509 1509 1510 1509 1509 1510 1510 1509 1507 1505 1501 1501 1503 1503 1504 1504 1504 1506 1507 1506 1506 1506 1506 1507 1508 1508 1509 1510 1510
1492 1493 1494 1496 1497 1498 1499 1501 1502 1503 1504 1505 1506 1507 1508 1509 1510 1510 1511 1512 1513 1514 1514 1515 1516 1516 1516 1516 1517 1517 1517 1517 1517 1517 1516 1516 1515 1515 1514 1514 1514 1513 1513 1512 1512 1511 1511 1510 1510 1509 1509 1508 1508 1507 1507 1506 1506 1506 1506 1506 1506 1506 1507 1506 1505 1504 1500 1498 1499 1500 1500 1500 1500 1502 1503 1503 1503 1503 1503 1503 1504 1504 1504 1505 1506
1489 1490 1492 1494 1494 1495 1496 1497 1499 1500 1501 1502 1503 1504 1505 1506 1507 1508 1509 1509 1510 1511 1512 1513 1514 1514 1515 1515 1515 1515 1515 1515 1515 1515 1514 1513 1513 1512 1512 1511 1511 1510 1510 1510 1509 1509 1508 1508 1507 1507 1506 1506 1505 1505 1504 1503 1503 1503 1502 1502 1502 1502 1503 1503 1502 1502 1499 1496 1496 1496 1497 1497 1497 1498 1499 1500 1500 1500 1500 1500 1500 1500 1500 1501 1502
1486 1487 1489 1491 1490 1490 1491 1493 1495 1496 1497 1498 1500 1501 1502 1503 1504 1505 1506 1507 1508 1508 1509 1510 1511 1512 1513 1513 1513 1514 1514 1514 1513 1512 1512 1511 1510 1510 1509 1509 1508 1508 1507 1507 1506 1506 1505 1505 1505 1504 1503 1503 1502 1502 1501 1500 1500 1499 1499 1499 1499 1499 1499 1499 1499 1499 1497 1495 1493 1493 1493 1493 1493 1494 1496 1496 1496 1497 1497 1497 1497 1497 1497 1497 1497
1483 1484 1485 1487 1487 1487 1488 1489 1491 1492 1494 1495 1496 1497 1498 1499 1501 1502 1503 1504 1505 1506 1507 1508 1509 1509 1510 1510 1511 1511 1511 1511 1511 1510 1509 1509 1508 1507 1507 1506 1506 1505 1505 1504 1503 1503 1502 1501 1501 1501 1500 1499 1498 1498 1498 1497 1497 1496 1496 1495 1495 1495 1495 1495 1495 1495 1494 1493 1491 1489 1489 1490 1490 1490 1492 1493 1493 1493 1493 1493 1494 1494 1493 1493 1493
1481 1481 1482 1483 1483 1484 1485 1486 1487 1488 1490 1491 1492 1493 1493 1495 1496 1498 1500 1501 1502 1503 1504 1505 1506 1507 1507 1508 1508 1509 1509 1508 1508 1507 1507 1506 1506 1505 1504 1504 1503 1502 1502 1501 1500 1499 1499 1498 1497 1497 1496 1495 1495 1494 1493 1493 1492 1492 1492 1492 1491 1491 1490 1490 1491 1490 1490 1489 1488 1487 1486 1486 1486 1486 1488 1489 1489 1489 1490 1490 1490 1490 1490 1490 1490
1479 1479 1480 1480 1480 1481 1482 1483 1484 1484 1486 1487 1488 1489 1489 1491 1493 1494 1495 1497 1499 1501 1502 1503 1504 1504 1505 1506 1506 1506 1506 1505 1505 1504 1504 1504 1503 1503 1502 1501 1500 1499 1498 1497 1497 1496 1495 1494 1493 1493 1492 1491 1491 1490 1490 1489 1488 1487 1487 1488 1487 1487 1486 1486 1485 1485 1485 1484 1483 1483 1483 1482 1482 1483 1484 1485 1485 1486 1487 1487 1486 1487 1487 1487 1486
1478 1478 1478 1477 1478 1478 1479 1480 1480 1481 1483 1484 1484 1484 1486 1489 1492 1493 1494 1496 1497 1499 1500 1500 1501 1502 1502 1503 1504 1503 1503 1502 1502 1502 1501 1501 1501 1500 1500 1499 1498 1496 1495 1494 1493 1492 1491 1490 1489 1489 1488 1487 1486 1486 1486 1485 1484 1483 1482 1483 1482 1482 1481 1481 1481 1480 1480 1479 1478 1479 1478 1477 1478 1479 1480 1481 1482 1482 1484 1484 1483 1483 1484 1483 1483
1476 1476 1476 1476 1476 1476 1476 1476 1477 1478 1480 1481 1481 1482 1483 1485 1488 1492 1494 1495 1496 1497 1498 1498 1499 1500 1500 1500 1501 1501 1500 1500 1500 1499 1499 1498 1498 1497 1496 1496 1495 1493 1492 1491 1489 1488 1487 1486 1485 1485 1484 1483 1482 1482 1481 1481 1480 1479 1478 1478 1477 1477 1476 1476 1475 1475 1475 1474 1473 1474 1473 1471 1473 1475 1475 1476 1478 1478 1479 1480 1479 1479 1480 1478 1478
1474 1473 1474 1474 1474 1474 1474 1474 1474 1475 1476 1477 1478 1479 1479 1481 1483 1486 1489 1492 1493 1495 1496 1497 1497 1497 1497 1497 1498 1498 1498 1498 1498 1497 1496 1495 1495 1494 1493 1492 1492 1490 1489 1487 1485 1484 1483 1482 1481 1480 1479 1479 1478 1477 1477 1476 1476 1475 1474 1473 1473 1472 1471 1471 1470 1470 1470 1469 1468 1469 1468 1466 1468 1470 1470 1471 1473 1474 1474 1475 1476 1476 1476 1474 1474
1470 1470 1471 1471 1471 1472 1471 1471 1471 1472 1472 1473 1474 1475 1477 1478 1481 1482 1484 1487 1490 1491 1492 1495 1495 1495 1495 1494 1495 1496 1496 1496 1495 1494 1493 1492 1491 1490 1490 1489 1488 1487 1485 1483 1481 1480 1478 1477 1476 1475 1475 1474 1473 1472 1472 1471 1471 1470 1469 1469 1468 1467 1467 1466 1465 1465 1465 1464 1463 1463 1463 1462 1463 1464 1466 1466 1468 1469 1469 1470 1471 1472 1472 1471 1470
1467 1467 1468 1468 1468 1469 1468 1468 1468 1469 1469 1470 1470 1472 1473 1475 1477 1479 1480 1483 1485 1486 1488 1492 1493 1493 1493 1492 1493 1493 1493 1493 1492 1491 1490 1489 1488 1487 1486 1485 1484 1483 1481 1480 1478 1476 1474 1473 1471 1470 1470 1469 1468 1467 1466 1466 1465 1464 1464 1463 1462 1462 1462 1461 1461 1461 1461 1460 1458 1456 1458 1459 1458 1458 1461 1463 1463 1464 1464 1465 1466 1467 1467 1467 1467
1464 1464 1464 1464 1464 1465 1465 1465 1465 1465 1466 1466 1467 1468 1470 1471 1473 1475 1477 1479 1481 1482 1485 1489 1491 1492 1491 1491 1491 1491 1491 1490 1490 1489 1488 1486 1485 1483 1482 1481 1480 1479 1478 1476 1474 1472 1470 1468 1466 1465 1465 1464 1463 1463 1462 1461 1459 1458 1458 1457 1456 1456 1456 1455 1455 1455 1455 1455 1453 1451 1453 1455 1453 1453 1456 1458 1458 1459 1459 1460 1462 1462 1462 1462 1463
1460 1460 1460 1460 1460 1460 1461 1461 1461 1461 1462 1463 1464 1465 1467 1469 1471 1473 1475 1477 1479 1480 1482 1486 1489 1490 1490 1489 1489 1489 1489 1488 1487 1486 1485 1483 1481 1480 1478 1477 1476 1475 1474 1472 1470 1468 1466 1464 1462 1460 1459 1459 1459 1458 1457 1455 1454 1452 1451 1450 1450 1449 1449 1449 1449 1449 1449 1449 1448 1447 1448 1449 1449 1449 1451 1452 1452 1453 1455 1456 1457 1457 1457 1457 1457
1455 1455 1455 1456 1456 1456 1457 1457 1457 1458 1458 1459 1461 1462 1464 1466 1468 1470 1472 1475 1477 1478 1481 1484 1486 1487 1487 1487 1487 1487 1486 1486 1485 1483 1482 1480 1478 1476 1475 1473 1471 1470 1469 1468 1466 1463 1461 1459 1457 1455 1454 1453 1453 1453 1452 1450 1448 1446 1444 1443 1443 1442 1441 1442 1443 1442 1442 1442 1442 1442 1442 1443 1444 1444 1445 1446 1446 1448 1450 1450 1450 1451 1452 1451 1451
1451 1451 1451 1451 1452 1452 1452 1453 1453 1454 1455 1456 1458 1460 1462 1464 1466 1467 1469 1472 1474 1477 1480 1482 1483 1484 1484 1484 1484 1484 1484 1483 1482 1481 1479 1478 1475 1473 1471 1469 1467 1466 1464 1463 1460 1458 1456 1454 1452 1450 1448 1448 1447 1447 1447 1445 1443 1440 1438 1437 1436 1434 1434 1435 1436 1435 1435 1435 1435 1436 1436 1437 1438 1438 1440 1441 1441 1443 1444 1443 1444 1446 1447 1446 1445
1448 1447 1447 1447 1447 1447 1448 1448 1449 1450 1451 1454 1456 1458 1460 1461 1463 1465 1467 1470 1473 1476 1478 1480 1480 1481 1481 1481 1481 1481 1481 1480 1479 1478 1477 1475 1472 1470 1468 1465 1463 1461 1459 1457 1455 1453 1450 1449 1447 1445 1443 1443 1442 1441 1441 1440 1437 1435 1433 1431 1428 1426 1427 1428 1428 1428 1428 1428 1428 1429 1430 1430 1431 1432 1433 1434 1436 1438 1438 1436 1438 1441 1441 1439 1440
1443 1443 1442 1442 1442 1443 1443 1444 1445 1447 1448 1451 1454 1456 1457 1458 1460 1463 1466 1469 1472 1474 1476 1478 1478 1478 1479 1479 1479 1478 1478 1478 1476 1475 1474 1472 1469 1467 1465 1462 1459 1457 1455 1452 1449 1447 1445 1443 1442 1441 1439 1438 1437 1436 1436 1435 1432 1430 1429 1426 1422 1420 1421 1422 1421 1421 1421 1420 1421 1422 1423 1424 1425 1425 1426 1428 1429 1431 1431 1431 1433 1435 1434 1434 1436
1439 1438 1437 1437 1437 1438 1439 1440 1442 1443 1446 1449 1451 1454 1457 1460 1462 1464 1467 1469 1471 1473 1475 1476 1476 1476 1476 1476 1476 1475 1475 1475 1474 1472 1471 1469 1467 1464 1462 1459 1456 1453 1450 1447 1444 1441 1439 1437 1436 1435 1434 1432 1431 1430 1430 1429 1427 1425 1423 1421 1417 1415 1417 1417 1415 1415 1415 1414 1414 1415 1415 1416 1418 1418 1419 1420 1422 1423 1424 1425 1427 1428 1428 1429 1431
1434 1433 1432 1432 1432 1433 1435 1436 1438 1441 1444 1446 1449 1452 1456 1461 1464 1467 1469 1470 1471 1472 1473 1474 1474 1474 1474 1474 1473 1473 1472 1471 1471 1469 1467 1466 1464 1461 1459 1457 1454 1450 1446 1442 1439 1436 1433 1432 1430 1429 1428 1426 1425 1424 1423 1422 1421 1419 1417 1415 1413 1412 1412 1411 1410 1410 1409 1408 1408 1408 1408 1409 1410 1411 1411 1412 1414 1416 1417 1419 1420 1422 1423 1424 1426
1429 1428 1427 1428 1428 1429 1431 1433 1436 1439 1442 1445 1448 1451 1455 1460 1464 1467 1469 1470 1470 1470 1471 1472 1472 1472 1472 1472 1472 1471 1470 1469 1467 1466 1464 1463 1461 1459 1457 1454 1451 1446 1441 1437 1434 1431 1428 1426 1424 1423 1422 1421 1419 1418 1417 1416 1415 1412 1410 1409 1408 1408 1407 1405 1405 1405 1404 1403 1403 1402 1401 1402 1403 1403 1405 1405 1407 1409 1410 1412 1414 1416 1417 1418 1420
1424 1423 1423 1424 1425 1427 1429 1432 1435 1438 1441 1445 1449 1453 1456 1460 1464 1467 1468 1469 1468 1468 1469 1470 1470 1471 1471 1471 1470 1469 1468 1466 1465 1463 1462 1460 1458 1457 1454 1451 1447 1443 1437 1433 1429 1426 1423 1421 1419 1418 1417 1415 1413 1412 1410 1409 1407 1405 1403 1403 1402 1402 1402 1400 1399 1399 1399 1398 1397 1395 1395 1396 1396 1396 1398 1399 1401 1403 1404 1406 1408 1410 1412 1413 1415
1420 1419 1421 1422 1424 1426 1428 1431 1435 1438 1441 1445 1450 1454 1457 1460 1463 1465 1467 1467 1467 1467 1468 1468 1468 1469 1469 1468 1468 1466 1465 1464 1463 1461 1460 1458 1456 1453 1450 1447 1443 1439 1434 1429 1425 1422 1419 1417 1415 1413 1412 1410 1408 1406 1404 1403 1401 1399 1398 1397 1397 1396 1396 1394 1394 1393 1392 1392 1390 1389 1388 1389 1389 1390 1392 1394 1396 1397 1398 1400 1402 1404 1406 1408 1410
1417 1418 1420 1422 1424 1426 1429 1432 1436 1439 1443 1447 1451 1454 1457 1459 1461 1463 1465 1466 1466 1466 1467 1467 1467 1467 1467 1466 1465 1464 1463 1462 1461 1459 1457 1455 1453 1450 1446 1442 1438 1434 1429 1424 1421 1418 1415 1412 1410 1408 1406 1404 1402 1400 1398 1397 1395 1394 1393 1392 1392 1391 1390 1388 1388 1387 1385 1384 1384 1382 1382 1383 1384 1384 1386 1389 1390 1391 1393 1395 1397 1399 1401 1403 1405
1416 1418 1420 1422 1425 1428 1430 1434 1438 1441 1445 1448 1452 1455 1457 1458 1460 1462 1464 1465 1465 1466 1466 1466 1466 1466 1465 1465 1463 1462 1461 1460 1458 1457 1455 1452 1448 1444 1440 1436 1432 1428 1424 1420 1416 1413 1410 1407 1405 1403 1401 1399 1397 1395 1393 1391 1390 1389 1388 1387 1386 1384 1383 1382 1381 1380 1379 1378 1377 1376 1376 1377 1378 1380 1381 1383 1384 1386 1388 1390 1392 1394 1396 1398 1399
1418 1420 1422 1425 1428 1430 1432 1436 1439 1443 1447 1450 1453 1455 1457 1459 1460 1462 1463 1464 1465 1465 1465 1465 1465 1465 1464 1463 1462 1460 1459 1457 1455 1453 1450 1446 1442 1438 1434 1430 1426 1422 1418 1415 1411 1408 1405 1402 1401 1399 1397 1395 1393 1391 1389 1387 1386 1384 1382 1381 1380 1378 1377 1376 1375 1374 1372 1372 1371 1370 1371 1372 1374 1375 1376 1377 1378 1381 1383 1385 1387 1388 1391 1394 1394
1422 1425 1428 1430 1431 1433 1435 1438 1441 1445 1448 1451 1454 1456 1458 1459 1461 1462 1463 1463 1464 1464 1464 1464 1463 1463 1462 1460 1459 1458 1456 1454 1452 1449 1445 1441 1437 1433 1429 1425 1421 1417 1414 1410 1407 1404 1402 1399 1397 1395 1393 1391 1389 1387 1385 1383 1381 1379 1377 1375 1374 1372 1371 1370 1369 1367 1366 1365 1365 1365 1366 1367 1368 1369 1370 1372 1373 1375 1378 1380 1382 1384 1387 1389 1389
1426 1429 1432 1434 1436 1437 1439 1441 1444 1447 1450 1452 1455 1457 1459 1460 1461 1461 1462 1463 1463 1463 1463 1462 1462 1461 1460 1459 1457 1455 1453 1451 1449 1446 1442 1438 1434 1430 1425 1421 1418 1414 1411 1408 1405 1402 1399 1397 1395 1392 1390 1387 1385 1382 1380 1378 1376 1374 1372 1370 1369 1367 1366 1364 1363 1361 1361 1361 1360 1360 1361 1361 1362 1363 1365 1366 1367 1370 1373 1375 1377 1379 1382 1383 1384
1430 1432 1434 1436 1439 1441 1442 1444 1446 1449 1451 1453 1455 1457 1459 1460 1460 1461 1461 1462 1462 1462 1461 1461 1460 1460 1459 1458 1456 1454 1452 1449 1446 1443 1439 1435 1432 1428 1424 1420 1417 1413 1410 1407 1404 1401 1398 1395 1392 1389 1387 1384 1381 1379 1376 1374 1371 1369 1367 1365 1364 1362 1360 1359 1357 1356 1356 1356 1355 1355 1355 1356 1357 1358 1360 1361 1363 1365 1368 1370 1373 1375 1377 1378 1379
1433 1435 1437 1439 1441 1443 1444 1446 1448 1450 1452 1454 1455 1457 1458 1459 1460 1460 1461 1461 1461 1460 1460 1459 1459 1458 1458 1456 1455 1453 1450 1447 1443 1440 1436 1433 1429 1426 1423 1419 1416 1412 1409 1405 1402 1399 1396 1392 1389 1387 1384 1382 1379 1376 1373 1370 1368 1365 1362 1360 1358 1357 1355 1353 1352 1351 1351 1350 1350 1350 1350 1351 1352 1353 1355 1356 1358 1361 1363 1366 1368 1370 1372 1373 1375
1435 1437 1439 1441 1443 1445 1446 1447 1449 1451 1452 1454 1456 1457 1458 1459 1459 1459 1459 1459 1459 1459 1459 1459 1458 1457 1456 1455 1453 1451 1448 1444 1441 1438 1435 1432 1428 1425 1422 1418 1414 1410 1407 1403 1400 1397 1394 1391 1388 1385 1382 1379 1376 1373 1370 1367 1364 1362 1359 1356 1353 1352 1351 1349 1347 1346 1345 1344 1345 1345 1345 1346 1347 1348 1350 1352 1355 1357 1359 1362 1364 1366 1368 1369 1371
1438 1439 1441 1443 1445 1446 1448 1449 1450 1452 1453 1455 1456 1457 1458 1458 1458 1458 1458 1459 1459 1459 1459 1459 1458 1457 1456 1454 1451 1449 1446 1443 1441 1438 1434 1431 1428 1424 1421 1417 1413 1408 1405 1401 1398 1395 1393 1390 1386 1383 1380 1377 1374 1371 1368 1365 1361 1358 1356 1352 1349 1347 1346 1345 1343 1341 1340 1340 1340 1340 1341 1342 1343 1345 1346 1348 1351 1353 1355 1357 1360 1362 1364 1366 1368
1440 1442 1444 1445 1446 1448 1449 1450 1452 1453 1454 1456 1457 1457 1458 1457 1457 1458 1459 1459 1459 1459 1459 1458 1457 1456 1455 1453 1450 1448 1446 1444 1441 1437 1433 1430 1426 1423 1419 1416 1412 1408 1404 1401 1397 1394 1391 1388 1385 1381 1378 1375 1372 1368 1365 1361 1358 1355 1352 1349 1346 1343 1342 1340 1339 1337 1336 1336 1336 1336 1337 1338 1339 1341 1342 1345 1347 1350 1352 1354 1356 1358 1360 1362 1364
1443 1445 1446 1447 1448 1449 1450 1451 1452 1454 1455 1456 1456 1457 1457 1457 1458 1459 1459 1459 1459 1459 1458 1458 1456 1455 1453 1452 1450 1448 1446 1443 1440 1436 1433 1429 1425 1422 1418 1414 1410 1406 1403 1400 1397 1394 1390 1387 1383 1380 1376 1373 1370 1366 1362 1359 1355 1352 1349 1346 1343 1340 1338 1337 1335 1334 1333 1333 1332 1332 1333 1334 1335 1337 1339 1341 1343 1346 1348 1350 1352 1355 1357 1359 1361
1444 1445 1447 1448 1449 1450 1451 1452 1453 1454 1455 1455 1456 1457 1457 1458 1458 1458 1459 1459 1459 1458 1457 1456 1455 1454 1453 1452 1450 1448 1446 1443 1439 1436 1432 1429 1425 1421 1417 1413 1409 1405 1402 1399 1396 1393 1390 1386 1382 1379 1375 1371 1368 1364 1360 1356 1353 1349 1346 1343 1340 1337 1335 1333 1332 1330 1330 1329 1329 1330 1330 1331 1332 1334 1336 1338 1340 1342 1344 1347 1349 1352 1354 1357 1359
1444 1446 1448 1449 1450 1451 1452 1453 1453 1454 1455 1455 1456 1457 1457 1458 1458 1458 1458 1458 1458 1457 1456 1455 1454 1454 1453 1452 1450 1447 1445 1442 1439 1436 1432 1429 1425 1421 1417 1414 1410 1406 1402 1399 1396 1392 1389 1385 1382 1378 1374 1370 1366 1362 1358 1354 1351 1347 1344 1340 1337 1335 1333 1331 1329 1327 1326 1326 1326 1327 1328 1329 1330 1331 1333 1335 1337 1339 1342 1344 1347 1349 1352 1354 1357
1445 1447 1449 1450 1451 1452 1452 1453 1453 1454 1454 1455 1456 1457 1457 1457 1457 1458 1458 1457 1456 1455 1455 1454 1453 1453 1452 1450 1449 1446 1444 1441 1438 1434 1431 1428 1424 1421 1417 1414 1410 1407 1403 1399 1396 1392 1388 1385 1381 1377 1373 1369 1365 1361 1357 1353 1349 1345 1341 1338 1335 1333 1330 1328 1327 1325 1324 1323 1323 1324 1325 1326 1328 1329 1331 1333 1335 1337 1340 1342 1345 1347 1350 1352 1355
1446 1448 1449 1450 1451 1451 1452 1453 1453 1454 1454 1455 1456 1457 1457 1457 1457 1457 1456 1456 1455 1454 1454 1453 1453 1452 1451 1449 1447 1445 1442 1439 1436 1432 1430 1427 1424 1421 1418 1414 1410 1407 1403 1399 1396 1392 1388 1384 1380 1376 1372 1368 1364 1360 1356 1352 1348 1344 1340 1337 1334 1331 1329 1327 1325 1323 1322 1321 1321 1322 1323 1325 1326 1328 1330 1332 1334 1336 1339 1341 1343 1345 1348 1350 1353
1446 1448 1449 1449 1450 1451 1452 1453 1453 1454 1454 1455 1456 1456 1456 1456 1456 1456 1455 1455 1454 1453 1453 1452 1452 1451 1450 1448 1446 1444 1441 1438 1435 1433 1430 1427 1425 1422 1418 1414 1410 1407 1403 1400 1395 1392 1388 1384 1380 1376 1372 1368 1364 1360 1355 1351 1347 1343 1340 1336 1333 1331 1328 1326 1324 1322 1321 1320 1320 1320 1322 1323 1325 1327 1329 1331 1333 1335 1338 1340 1342 1344 1346 1349 1351
1446 1447 1448 1449 1450 1451 1452 1453 1453 1454 1454 1455 1455 1455 1455 1456 1455 1455 1455 1454 1453 1453 1452 1452 1451 1450 1449 1447 1445 1443 1441 1438 1436 1434 1431 1428 1426 1423 1419 1415 1411 1407 1404 1400 1396 1392 1388 1385 1381 1376 1372 1368 1364 1360 1355 1351 1347 1343 1340 1336 1333 1331 1329 1326 1324 1322 1321 1320 1320 1320 1322 1323 1325 1327 1329 1331 1333 1335 1337 1339 1341 1343 1345 1348 1350
1446 1447 1448 1449 1450 1451 1452 1453 1453 1454 1454 1454 1454 1454 1455 1455 1455 1454 1454 1453 1453 1452 1452 1451 1450 1449 1448 1447 1445 1443 1441 1439 1437 1434 1432 1429 1427 1424 1420 1416 1412 1408 1404 1400 1396 1393 1389 1385 1381 1377 1373 1368 1364 1360 1356 1352 1348 1344 1341 1337 1334 1332 1329 1327 1325 1323 1322 1322 1321 1322 1322 1324 1325 1327 1329 1331 1333 1335 1337 1339 1341 1343 1345 1347 1350
1447 1447 1448 1449 1450 1452 1452 1453 1453 1453 1453 1453 1453 1454 1454 1454 1454 1454 1453 1453 1452 1452 1451 1450 1449 1448 1447 1446 1445 1443 1442 1440 1438 1435 1432 1430 1427 1424 1421 1418 1413 1409 1405 1401 1397 1393 1390 1386 1382 1378 1374 1370 1365 1361 1357 1353 1349 1345 1342 1338 1335 1333 1331 1329 1327 1325 1324 1323 1323 1323 1324 1325 1326 1328 1329 1331 1333 1334 1336 1338 1340 1342 1345 1348 1350
1447 1448 1449 1449 1450 1451 1452 1452 1453 1453 1453 1453 1453 1454 1454 1454 1454 1453 1453 1452 1452 1451 1450 1449 1448 1447 1446 1445 1444 1443 1442 1440 1438 1435 1433 1430 1427 1425 1422 1418 1414 1410 1406 1402 1398 1394 1390 1386 1383 1379 1375 1371 1367 1363 1359 1355 1351 1347 1344 1340 1337 1334 1332 1330 1329 1328 1327 1326 1325 1325 1326 1326 1327 1328 1330 1331 1333 1335 1336 1339 1341 1343 1346 1349 1351
1447 1448 1449 1450 1450 1451 1452 1452 1452 1452 1452 1453 1453 1453 1454 1454 1453 1453 1452 1452 1451 1450 1450 1448 1447 1446 1445 1445 1444 1443 1441 1440 1438 1436 1433 1431 1428 1425 1422 1419 1415 1411 1407 1403 1399 1395 1391 1387 1383 1380 1376 1372 1368 1364 1360 1357 1353 1349 1346 1343 1339 1336 1334 1332 1331 1330 1329 1328 1328 1328 1328 1328 1329 1330 1331 1332 1334 1336 1338 1340 1342 1345 1347 1350 1353
1448 1449 1449 1450 1451 1451 1452 1452 1452 1452 1452 1453 1453 1453 1453 1453 1453 1452 1452 1451 1450 1450 1449 1447 1446 1445 1444 1444 1443 1442 1441 1440 1438 1436 1434 1431 1428 1425 1423 1420 1416 1412 1409 1405 1401 1396 1392 1389 1385 1381 1378 1374 1370 1366 1362 1359 1355 1352 1348 1345 1342 1339 1337 1335 1334 1332 1331 1331 1330 1330 1330 1330 1331 1332 1333 1335 1336 1338 1340 1342 1345 1347 1350 1353 1355
1449 1450 1450 1450 1451 1452 1452 1452 1452 1452 1452 1452 1453 1453 1453 1452 1452 1452 1451 1450 1450 1449 1448 1447 1446 1445 1444 1443 1443 1442 1441 1440 1438 1436 1434 1431 1428 1426 1423 1420 1417 1414 1410 1406 1402 1398 1394 1390 1386 1383 1379 1376 1372 1368 1364 1361 1358 1354 1351 1348 1345 1342 1340 1338 1336 1335 1334 1333 1333 1333 1333 1333 1334 1335 1336 1338 1339 1341 1343 1345 1348 1350 1353 1356 1358
1450 1450 1450 1451 1451 1452 1452 1452 1452 1452 1452 1452 1452 1452 1452 1452 1451 1451 1450 1450 1449 1448 1447 1446 1445 1444 1443 1443 1442 1441 1441 1439 1438 1436 1433 1431 1429 1426 1423 1421 1418 1415 1411 1408 1404 1400 1396 1392 1388 1385 1381 1378 1375 1371 1367 1364 1360 1357 1354 1351 1349 1346 1343 1341 1340 1338 1337 1337 1336 1336 1336 1337 1338 1339 1340 1341 1343 1344 1346 1348 1351 1354 1356 1359 1362
1451 1451 1451 1451 1452 1452 1452 1452 1452 1452 1452 1452 1452 1452 1451 1451 1451 1450 1449 1449 1448 1447 1446 1446 1445 1444 1443 1442 1442 1441 1440 1439 1437 1435 1433 1431 1429 1427 1424 1421 1419 1415 1412 1409 1405 1402 1398 1394 1391 1387 1384 1380 1377 1374 1370 1367 1364 1360 1357 1355 1352 1350 1348 1345 1344 1342 1341 1341 1341 1340 1340 1341 1342 1343 1344 1345 1346 1348 1350 1352 1355 1358 1360 1362 1365
1452 1452 1452 1452 1452 1453 1453 1452 1452 1452 1451 1451 1451 1451 1451 1450 1450 1449 1449 1448 1447 1447 1446 1445 1444 1444 1443 1442 1441 1440 1439 1438 1436 1435 1433 1431 1429 1427 1424 1422 1419 1416 1413 1410 1407 1404 1400 1396 1393 1389 1386 1383 1380 1377 1374 1370 1367 1365 1362 1359 1357 1354 1352 1350 1348 1347 1346 1345 1345 1345 1345 1345 1346 1347 1348 1350 1351 1352 1354 1357 1359 1362 1365 1367 1370
1452 1452 1453 1453 1453 1453 1453 1452 1452 1451 1451 1451 1451 1451 1450 1450 1449 1449 1448 1448 1447 1447 1446 1445 1445 1444 1443 1442 1441 1440 1439 1437 1436 1434 1433 1431 1429 1427 1425 1423 1420 1417 1415 1412 1409 1406 1402 1399 1395 1392 1389 1385 1383 1380 1377 1374 1372 1369 1367 1364 1361 1359 1357 1355 1353 1352 1351 1351 1350 1350 1350 1351 1351 1352 1353 1355 1356 1357 1359 1362 1365 1368 1370 1372 1375